Smith Mills, KY

5:10 PM CDT on August 24, 2016 (GMT -0500)
Henderson City-County

Weather History for KEHR - March, 2014

Change the Weather History Date:

Friday, March 28, 2014

  Actual Average Record
Temperature  
Mean Temperature 52 °F -  
Max Temperature 57 °F 65 °F 83 °F (1985)
Min Temperature 46 °F 41 °F 11 °F (1947)
Degree Days  
Heating Degree Days 14    
Growing Degree Days 2 (Base 50)    
Moisture  
Dew Point 44 °F    
Average Humidity 73    
Maximum Humidity 94    
Minimum Humidity 59    
Precipitation  
Precipitation 0.57 in - - ()
Sea Level Pressure  
Sea Level Pressure 29.95 in    
Wind  
Wind Speed 13 mph (North)    
Max Wind Speed 26 mph    
Max Gust Speed 34 mph    
Visibility 10 miles    
Events Thunderstorm    
Averages and records for this station are not official NWS values.
T = Trace of Precipitation, MM = Missing Value Source: NWS Daily Summary

Daily Weather History Graph

Daily Weather History Graph

Search for Another Location

Airport or City:

Trip Planner

Search our weather history database for the weather conditions in past years. The results will help you decide how hot, cold, wet, or windy it might be!

Date:

Astronomy

Mar. 28, 2014 Rise Set
Actual Time 6:42 AM CDT 7:10 PM CDT
Civil Twilight 6:15 AM CDT 7:36 PM CDT
Nautical Twilight 5:44 AM CDT 8:07 PM CDT
Astronomical Twilight 5:13 AM CDT 8:39 PM CDT
Moon 5:10 AM CDT (3/28) 5:08 PM CDT (3/28)
Length of Visible Light 13h 20m
Length of Day
12h 27m
Waning Crescent, 6% of the Moon is Illuminated
Mar 28
Waning Crescent
Mar 30
New
Apr 7
First Quarter
Apr 15
Full
Apr 22
Last Quarter

Hourly Weather History & Observations

Time (CDT) Temp. Windchill Dew Point Humidity Pressure Visibility Wind Dir Wind Speed Gust Speed Precip Events Conditions
12:15 AM 51.8 °F - 44.6 °F 76% 29.81 in 10.0 mi South 21.9 mph 29.9 mph N/A   Overcast
12:35 AM 51.8 °F - 44.6 °F 76% 29.80 in 10.0 mi South 19.6 mph 29.9 mph N/A   Overcast
12:55 AM 51.8 °F - 46.4 °F 82% 29.79 in 8.0 mi South 17.3 mph 34.5 mph 0.04 in   Overcast
1:15 AM 51.8 °F - 46.4 °F 82% 29.78 in 8.0 mi South 26.5 mph - 0.03 in   Overcast
1:35 AM 51.8 °F - 46.4 °F 82% 29.78 in 8.0 mi South 19.6 mph - 0.12 in   Overcast
1:55 AM 51.8 °F - 48.2 °F 88% 29.80 in 10.0 mi South 13.8 mph - 0.15 in   Overcast
2:15 AM 53.6 °F - 48.2 °F 82% 29.79 in 10.0 mi South 15.0 mph - N/A   Overcast
2:35 AM 53.6 °F - 48.2 °F 82% 29.85 in 10.0 mi NW 17.3 mph - 0.05 in Thunderstorm Thunderstorm
2:55 AM 51.8 °F - 48.2 °F 88% 29.81 in 5.0 mi SE 8.1 mph - 0.34 in Thunderstorm Thunderstorm
3:15 AM 51.8 °F - 48.2 °F 88% 29.80 in 10.0 mi SSE 10.4 mph - 0.03 in   Overcast
3:35 AM 51.8 °F - 48.2 °F 88% 29.80 in 10.0 mi SSE 10.4 mph - 0.03 in   Overcast
3:55 AM 51.8 °F - 48.2 °F 88% 29.80 in 10.0 mi SSE 9.2 mph - 0.03 in   Mostly Cloudy
4:15 AM 51.8 °F - 48.2 °F 88% 29.80 in 10.0 mi SSE 9.2 mph - N/A   Overcast
4:35 AM 53.6 °F - 50.0 °F 88% 29.80 in 10.0 mi South 12.7 mph - N/A   Overcast
4:55 AM 53.6 °F - 50.0 °F 88% 29.81 in 10.0 mi South 9.2 mph - N/A   Overcast
5:15 AM 53.6 °F - 50.0 °F 88% 29.82 in 10.0 mi SSW 8.1 mph - N/A   Overcast
5:35 AM 53.6 °F - 51.8 °F 94% 29.82 in 10.0 mi SSW 8.1 mph - N/A   Overcast
5:55 AM 55.4 °F - 51.8 °F 88% 29.83 in 10.0 mi SSW 11.5 mph - N/A   Overcast
6:15 AM 55.4 °F - 51.8 °F 88% 29.84 in 10.0 mi SW 10.4 mph - N/A   Overcast
6:35 AM 55.4 °F - 51.8 °F 88% 29.85 in 10.0 mi SSW 10.4 mph - N/A   Overcast
6:55 AM 55.4 °F - 51.8 °F 88% 29.87 in 10.0 mi SW 11.5 mph - N/A   Overcast
7:15 AM 53.6 °F - 48.2 °F 82% 29.90 in 10.0 mi WNW 18.4 mph 23.0 mph 0.01 in   Overcast
7:35 AM 51.8 °F - 42.8 °F 71% 29.92 in 10.0 mi WNW 13.8 mph - 0.01 in   Overcast
7:55 AM 50.0 °F - 42.8 °F 76% 29.94 in 10.0 mi WNW 11.5 mph - 0.01 in   Overcast
8:15 AM 48.2 °F - 42.8 °F 82% 29.96 in 10.0 mi WNW 12.7 mph - N/A   Overcast
8:35 AM 48.2 °F - 41.0 °F 76% 29.97 in 10.0 mi WNW 13.8 mph - N/A   Overcast
8:55 AM 48.2 °F - 39.2 °F 71% 29.98 in 10.0 mi NW 15.0 mph - N/A   Overcast
9:15 AM 46.4 °F 40.4 °F 39.2 °F 76% 29.99 in 10.0 mi NW 13.8 mph - N/A   Overcast
9:35 AM 48.2 °F - 37.4 °F 66% 29.99 in 10.0 mi NW 13.8 mph - N/A   Overcast
9:55 AM 48.2 °F - 39.2 °F 71% 30.01 in 10.0 mi NW 11.5 mph - N/A   Mostly Cloudy
10:15 AM 48.2 °F - 39.2 °F 71% 30.02 in 10.0 mi NNW 11.5 mph - N/A   Overcast
10:35 AM 50.0 °F - 41.0 °F 71% 30.02 in 10.0 mi NW 9.2 mph - N/A   Mostly Cloudy
10:55 AM 50.0 °F - 39.2 °F 66% 30.02 in 10.0 mi North 10.4 mph - N/A   Partly Cloudy
11:15 AM 51.8 °F - 42.8 °F 71% 30.02 in 10.0 mi NW 11.5 mph - N/A   Clear
11:35 AM 51.8 °F - 41.0 °F 67% 30.02 in 10.0 mi NNW 8.1 mph - N/A   Clear
11:55 AM 51.8 °F - 42.8 °F 71% 30.02 in 10.0 mi NNW 8.1 mph - N/A   Clear
12:15 PM 53.6 °F - 42.8 °F 67% 30.02 in 10.0 mi North 5.8 mph - N/A   Clear
12:35 PM 51.8 °F - 42.8 °F 71% 30.03 in 10.0 mi North 6.9 mph - N/A   Clear
12:55 PM 51.8 °F - 42.8 °F 71% 30.03 in 10.0 mi North 6.9 mph - N/A   Clear
1:15 PM 53.6 °F - 42.8 °F 67% 30.02 in 10.0 mi NE 5.8 mph - N/A   Clear
1:35 PM 55.4 °F - 44.6 °F 67% 30.02 in 10.0 mi North 8.1 mph - N/A   Clear
1:55 PM 55.4 °F - 42.8 °F 63% 30.01 in 10.0 mi North 5.8 mph - N/A   Clear
2:15 PM 57.2 °F - 42.8 °F 59% 30.01 in 10.0 mi NNE 8.1 mph - N/A   Clear
2:35 PM 55.4 °F - 42.8 °F 63% 30.01 in 10.0 mi North 9.2 mph - N/A   Clear
2:55 PM 57.2 °F - 42.8 °F 59% 30.01 in 10.0 mi North 8.1 mph - N/A   Clear
3:15 PM 57.2 °F - 42.8 °F 59% 30.00 in 10.0 mi North 8.1 mph - N/A   Clear
3:35 PM 57.2 °F - 42.8 °F 59% 30.00 in 10.0 mi North 9.2 mph - N/A   Clear
3:55 PM 55.4 °F - 42.8 °F 63% 29.99 in 10.0 mi North 6.9 mph - N/A   Clear
4:15 PM 57.2 °F - 42.8 °F 59% 29.98 in 10.0 mi North 9.2 mph - N/A   Clear
4:35 PM 57.2 °F - 42.8 °F 59% 29.98 in 10.0 mi NNE 9.2 mph - N/A   Clear
4:55 PM 57.2 °F - 42.8 °F 59% 29.98 in 10.0 mi NNE 10.4 mph - N/A   Clear
5:15 PM 57.2 °F - 42.8 °F 59% 29.98 in 10.0 mi NNE 6.9 mph - N/A   Clear
5:35 PM 57.2 °F - 42.8 °F 59% 30.00 in 10.0 mi North 6.9 mph - N/A   Clear
5:55 PM 57.2 °F - 42.8 °F 59% 30.00 in 10.0 mi NNE 8.1 mph - N/A   Clear
6:15 PM 53.6 °F - 42.8 °F 67% 30.01 in 10.0 mi North 6.9 mph - N/A   Clear
6:35 PM 53.6 °F - 42.8 °F 67% 30.01 in 10.0 mi NNE 6.9 mph - N/A   Clear
6:55 PM 53.6 °F - 42.8 °F 67% 30.02 in 10.0 mi NNE 5.8 mph - N/A   Clear
7:15 PM 51.8 °F - 42.8 °F 71% 30.01 in 10.0 mi NNE 5.8 mph - N/A   Clear
7:35 PM 51.8 °F - 42.8 °F 71% 30.02 in 10.0 mi North 3.5 mph - N/A   Clear
7:55 PM 51.8 °F - 42.8 °F 71% 30.02 in 10.0 mi North 5.8 mph - N/A   Clear
8:15 PM 53.6 °F - 41.0 °F 62% 30.02 in 10.0 mi North 8.1 mph - N/A   Partly Cloudy
8:35 PM 46.4 °F 41.9 °F 41.0 °F 81% 30.02 in 10.0 mi NNE 9.2 mph - N/A   Partly Cloudy
8:55 PM 46.4 °F 42.4 °F 41.0 °F 81% 30.02 in 10.0 mi North 8.1 mph - N/A   Clear
9:15 PM 48.2 °F - 39.2 °F 71% 30.03 in 10.0 mi North 9.2 mph - N/A   Clear
9:35 PM 51.8 °F - 41.0 °F 67% 30.04 in 10.0 mi North 5.8 mph - N/A   Scattered Clouds
9:55 PM 51.8 °F - 39.2 °F 62% 30.03 in 10.0 mi North 6.9 mph - N/A   Scattered Clouds
10:15 PM 50.0 °F - 39.2 °F 66% 30.03 in 10.0 mi North 6.9 mph - N/A   Mostly Cloudy
10:35 PM 50.0 °F - 41.0 °F 71% 30.01 in 10.0 mi NNE 11.5 mph - N/A   Overcast
10:55 PM 50.0 °F - 39.2 °F 66% 30.01 in 10.0 mi NNE 10.4 mph - N/A   Overcast
11:15 PM 48.2 °F - 39.2 °F 71% 30.01 in 10.0 mi NNE 11.5 mph - N/A   Overcast
11:35 PM 48.2 °F - 39.2 °F 71% 30.00 in 10.0 mi NNE 10.4 mph - N/A   Overcast
11:55 PM 48.2 °F - 39.2 °F 71% 30.02 in 10.0 mi NW 11.5 mph - N/A   Overcast